Temp
-12 -11 -11 -12 -11 -11 -11 -11 -11 -12 -12 -12 -12 -12 -12 -12 -12 -13 -13 -16 -17 -17 -18 -18 -18 -18 -18 -19 -19 -19 -18 -16 -15 -14 -12 -14 -14 -13 -13 -12 -12 -10 -10 -11 -10
-12 -11 -12 -12 -12 -12 -12 -12 -12 -12 -12 -12 -12 -12 -12 -13 -13 -13 -14 -16 -17 -17 -18 -18 -18 -18 -19 -19 -19 -19 -18 -17 -17 -16 -16 -16 -14 -13 -13 -13 -12 -11 -11 -12 -11
-12 -12 -12 -12 -12 -12 -12 -12 -12 -12 -12 -12 -12 -12 -12 -13 -13 -14 -14 -16 -17 -17 -18 -18 -18 -19 -19 -19 -19 -19 -18 -18 -18 -18 -17 -16 -14 -13 -13 -13 -12 -11 -11 -12 -11
-12 -12 -12 -12 -12 -12 -12 -12 -12 -12 -12 -13 -13 -13 -13 -13 -13 -14 -15 -16 -17 -17 -18 -18 -18 -19 -19 -19 -19 -19 -19 -19 -19 -18 -17 -15 -14 -13 -11 -13 -12 -11 -12 -12 -11
-12 -12 -12 -12 -12 -13 -13 -13 -13 -13 -13 -13 -13 -13 -13 -13 -14 -14 -15 -16 -17 -17 -18 -18 -18 -19 -19 -19 -19 -19 -19 -20 -20 -19 -17 -16 -15 -13 -13 -12 -12 -12 -12 -12 -11
-12 -12 -13 -13 -13 -13 -13 -13 -13 -13 -13 -14 -14 -14 -14 -13 -14 -15 -15 -16 -16 -17 -18 -18 -18 -19 -19 -19 -19 -19 -19 -20 -20 -19 -18 -17 -16 -14 -13 -12 -12 -12 -12 -12 -12
-13 -13 -13 -13 -13 -13 -13 -13 -13 -14 -14 -14 -14 -14 -14 -14 -14 -15 -15 -16 -16 -17 -18 -18 -18 -19 -19 -19 -19 -20 -20 -20 -20 -19 -18 -17 -15 -14 -14 -13 -12 -12 -12 -12 -12
-13 -13 -13 -13 -13 -13 -13 -13 -14 -14 -14 -14 -14 -14 -14 -15 -15 -15 -15 -16 -16 -17 -18 -18 -19 -19 -19 -20 -19 -20 -20 -20 -20 -19 -19 -18 -17 -16 -15 -13 -12 -13 -12 -13 -13
-13 -13 -13 -13 -13 -14 -14 -14 -14 -14 -14 -15 -15 -15 -15 -15 -15 -15 -15 -16 -16 -17 -17 -18 -18 -19 -19 -19 -19 -19 -19 -20 -20 -20 -19 -19 -18 -16 -14 -12 -13 -14 -13 -12 -13
-13 -13 -13 -14 -14 -14 -14 -14 -14 -14 -14 -15 -15 -15 -15 -15 -16 -16 -16 -16 -16 -17 -17 -17 -18 -18 -19 -19 -19 -20 -20 -20 -20 -19 -19 -18 -18 -17 -15 -12 -13 -13 -13 -13 -13
-13 -13 -13 -14 -14 -14 -14 -14 -14 -14 -15 -15 -15 -15 -15 -16 -16 -16 -16 -16 -16 -16 -17 -17 -18 -18 -19 -19 -19 -19 -20 -20 -19 -19 -18 -18 -18 -17 -16 -15 -14 -14 -13 -13 -13
-14 -14 -14 -14 -14 -14 -14 -15 -15 -15 -15 -15 -15 -15 -16 -16 -16 -16 -17 -17 -17 -17 -17 -17 -18 -18 -19 -19 -19 -19 -19 -19 -19 -19 -18 -18 -17 -17 -17 -14 -14 -14 -14 -14 -13
-14 -14 -14 -14 -14 -15 -15 -15 -15 -15 -15 -15 -15 -16 -16 -16 -16 -16 -17 -17 -17 -17 -17 -17 -18 -18 -18 -18 -18 -18 -19 -19 -18 -19 -18 -17 -17 -16 -17 -16 -17 -15 -14 -13 -13
-14 -15 -14 -15 -15 -15 -15 -15 -15 -15 -15 -15 -16 -16 -16 -16 -16 -16 -17 -17 -17 -17 -17 -17 -17 -17 -18 -18 -18 -18 -18 -18 -18 -18 -17 -17 -16 -16 -16 -16 -16 -15 -16 -14 -13
-14 -15 -15 -15 -15 -15 -15 -15 -15 -15 -16 -16 -16 -16 -16 -16 -16 -16 -17 -17 -17 -17 -17 -17 -18 -17 -17 -17 -18 -18 -18 -18 -18 -18 -17 -17 -16 -16 -15 -16 -15 -15 -15 -15 -15
-14 -15 -15 -15 -15 -15 -15 -15 -15 -16 -16 -16 -16 -16 -16 -16 -16 -17 -17 -17 -17 -17 -17 -18 -18 -18 -18 -18 -17 -18 -17 -18 -18 -18 -18 -17 -17 -17 -15 -15 -15 -15 -15 -15 -15
-15 -15 -16 -16 -15 -15 -16 -16 -16 -16 -16 -16 -16 -16 -16 -16 -17 -17 -17 -17 -17 -17 -18 -18 -18 -18 -18 -18 -17 -17 -17 -17 -17 -17 -18 -18 -17 -17 -16 -15 -15 -15 -15 -15 -14
-16 -16 -15 -16 -16 -16 -16 -16 -16 -16 -16 -16 -16 -17 -17 -17 -17 -17 -17 -17 -17 -17 -17 -18 -18 -18 -18 -18 -18 -17 -17 -17 -17 -18 -18 -18 -18 -17 -16 -16 -15 -15 -15 -15 -14
-16 -15 -16 -16 -16 -16 -16 -16 -16 -17 -16 -17 -17 -17 -17 -17 -17 -17 -17 -17 -17 -18 -18 -18 -18 -18 -18 -18 -18 -18 -17 -18 -17 -17 -17 -18 -17 -17 -16 -16 -16 -15 -15 -14 -14
-16 -16 -16 -16 -16 -16 -16 -16 -16 -17 -17 -17 -17 -17 -17 -17 -17 -17 -17 -17 -17 -18 -18 -18 -17 -18 -18 -18 -18 -18 -18 -18 -17 -17 -17 -18 -18 -17 -17 -17 -16 -16 -15 -15 -14
-14 -16 -16 -17 -16 -16 -16 -16 -17 -17 -17 -17 -17 -17 -17 -17 -17 -17 -17 -17 -17 -17 -18 -18 -17 -18 -18 -18 -18 -18 -18 -18 -17 -17 -17 -17 -17 -17 -17 -17 -17 -16 -16 -15 -15
-13 -14 -16 -16 -17 -16 -16 -16 -16 -17 -17 -17 -17 -17 -17 -17 -17 -18 -18 -17 -17 -17 -18 -18 -17 -17 -17 -17 -17 -17 -18 -18 -18 -17 -19 -17 -18 -18 -17 -16 -16 -16 -16 -16 -15
-14 -14 -15 -15 -16 -16 -17 -17 -17 -18 -17 -17 -17 -17 -17 -17 -17 -18 -18 -18 -18 -18 -18 -17 -17 -16 -16 -17 -17 -17 -17 -17 -17 -17 -18 -17 -17 -18 -17 -16 -16 -16 -16 -17 -17
-13 -13 -15 -15 -16 -16 -16 -17 -18 -17 -17 -17 -17 -17 -18 -18 -18 -18 -18 -17 -18 -18 -18 -17 -17 -18 -16 -17 -16 -16 -17 -18 -17 -16 -16 -17 -16 -18 -17 -17 -17 -16 -16 -16 -17
-14 -14 -15 -15 -16 -16 -16 -16 -17 -17 -17 -18 -17 -18 -17 -18 -18 -18 -17 -17 -17 -17 -17 -17 -16 -16 -16 -16 -16 -15 -16 -17 -17 -17 -15 -16 -16 -17 -16 -16 -16 -16 -16 -16 -16
-14 -14 -14 -15 -16 -15 -15 -16 -16 -17 -16 -17 -18 -18 -18 -18 -18 -17 -17 -18 -17 -17 -16 -16 -16 -15 -15 -16 -15 -16 -16 -16 -17 -17 -16 -16 -17 -16 -16 -16 -16 -16 -16 -16 -16
-14 -14 -14 -14 -15 -15 -15 -16 -16 -16 -16 -17 -17 -17 -18 -18 -17 -17 -17 -18 -17 -17 -17 -16 -15 -15 -14 -16 -15 -16 -17 -17 -17 -17 -17 -16 -17 -17 -16 -16 -16 -16 -16 -17 -16
Height
5822 5819 5817 5814 5811 5807 5803 5799 5794 5790 5785 5780 5775 5768 5761 5754 5746 5736 5727 5716 5709 5700 5694 5688 5684 5681 5678 5676 5676 5679 5686 5694 5703 5713 5732 5741 5747 5757 5766 5773 5775 5783 5790 5799 5801
5822 5819 5816 5813 5810 5806 5802 5798 5793 5788 5783 5778 5772 5766 5759 5751 5742 5734 5722 5712 5706 5698 5691 5684 5679 5675 5674 5672 5672 5674 5680 5689 5695 5705 5716 5726 5735 5748 5755 5766 5770 5779 5785 5791 5794
5822 5819 5816 5813 5809 5805 5801 5796 5791 5786 5780 5775 5769 5763 5756 5749 5742 5730 5719 5710 5703 5696 5688 5681 5675 5672 5670 5668 5668 5670 5675 5678 5684 5687 5696 5715 5725 5738 5747 5753 5761 5770 5777 5784 5787
5823 5819 5816 5812 5809 5805 5800 5795 5790 5784 5779 5773 5766 5761 5754 5746 5739 5728 5718 5709 5701 5694 5686 5679 5674 5670 5667 5667 5666 5667 5667 5671 5677 5684 5694 5706 5719 5731 5730 5742 5749 5762 5770 5776 5780
5822 5820 5816 5813 5809 5804 5800 5794 5789 5784 5778 5772 5765 5758 5752 5746 5736 5727 5717 5709 5700 5693 5685 5678 5672 5669 5666 5664 5663 5663 5664 5667 5672 5680 5688 5698 5709 5721 5728 5735 5743 5753 5761 5768 5774
5822 5819 5816 5812 5809 5804 5800 5795 5789 5784 5777 5771 5764 5757 5750 5745 5735 5726 5718 5709 5701 5693 5685 5678 5672 5669 5666 5663 5662 5661 5662 5665 5668 5677 5684 5691 5701 5713 5726 5731 5734 5744 5754 5762 5769
5821 5818 5815 5812 5808 5804 5800 5795 5790 5784 5777 5771 5764 5757 5752 5744 5735 5727 5720 5710 5701 5693 5686 5679 5673 5669 5666 5663 5661 5659 5660 5662 5667 5674 5680 5685 5698 5708 5716 5723 5717 5736 5744 5754 5762
5821 5818 5814 5810 5807 5803 5799 5795 5790 5784 5779 5772 5766 5759 5753 5743 5736 5728 5719 5712 5703 5694 5687 5680 5675 5671 5666 5663 5660 5659 5661 5662 5665 5670 5677 5682 5693 5699 5711 5720 5709 5729 5734 5745 5755
5819 5817 5814 5810 5806 5802 5799 5794 5790 5785 5779 5773 5768 5761 5751 5743 5736 5729 5721 5714 5706 5698 5690 5682 5678 5673 5669 5664 5661 5661 5659 5661 5664 5668 5675 5678 5687 5695 5708 5716 5715 5724 5730 5739 5750
5818 5815 5813 5809 5806 5802 5798 5794 5789 5785 5779 5774 5767 5763 5752 5748 5740 5731 5724 5715 5708 5703 5693 5687 5681 5676 5671 5668 5666 5664 5664 5663 5665 5668 5674 5678 5687 5696 5707 5708 5715 5722 5728 5736 5746
5816 5813 5811 5808 5804 5801 5797 5793 5791 5786 5779 5773 5766 5760 5755 5749 5743 5737 5726 5719 5710 5702 5696 5689 5683 5680 5675 5672 5669 5666 5666 5666 5666 5670 5675 5680 5687 5693 5696 5698 5704 5716 5724 5732 5737
5814 5811 5809 5806 5802 5799 5795 5792 5788 5784 5778 5773 5767 5762 5756 5751 5746 5737 5730 5722 5716 5707 5700 5694 5687 5682 5679 5675 5673 5670 5668 5669 5669 5670 5674 5678 5686 5691 5695 5699 5702 5710 5720 5726 5732
5811 5808 5806 5803 5800 5797 5793 5789 5785 5782 5778 5774 5768 5763 5758 5752 5745 5739 5733 5726 5719 5712 5704 5697 5691 5687 5683 5678 5676 5674 5672 5671 5672 5673 5674 5678 5687 5692 5696 5699 5698 5705 5713 5718 5724
5806 5805 5803 5801 5799 5794 5791 5787 5783 5779 5776 5774 5768 5762 5758 5752 5747 5739 5732 5727 5721 5715 5708 5701 5696 5691 5687 5682 5679 5677 5675 5674 5673 5675 5676 5678 5683 5688 5692 5697 5700 5702 5708 5711 5713
5801 5800 5799 5797 5796 5792 5789 5785 5781 5778 5775 5770 5765 5760 5755 5751 5747 5742 5735 5730 5724 5717 5713 5708 5702 5696 5692 5688 5683 5681 5678 5677 5676 5676 5677 5679 5683 5685 5689 5691 5696 5699 5704 5710 5713
5797 5795 5794 5793 5791 5788 5785 5782 5779 5777 5772 5768 5763 5759 5755 5750 5746 5741 5739 5732 5727 5721 5714 5710 5705 5700 5695 5691 5688 5684 5682 5678 5677 5677 5678 5678 5681 5680 5684 5690 5693 5698 5702 5707 5709
5791 5790 5788 5788 5787 5783 5781 5778 5777 5773 5770 5764 5761 5757 5753 5750 5745 5740 5735 5732 5725 5721 5716 5712 5706 5702 5698 5693 5690 5686 5684 5681 5679 5677 5678 5678 5679 5680 5682 5687 5690 5692 5696 5705 5706
5784 5784 5783 5781 5780 5778 5776 5775 5771 5768 5765 5761 5758 5754 5751 5747 5744 5740 5735 5727 5723 5719 5714 5709 5704 5700 5697 5694 5690 5687 5684 5682 5680 5679 5678 5677 5676 5677 5680 5683 5686 5689 5692 5695 5701
5776 5777 5776 5775 5773 5772 5771 5769 5766 5763 5760 5756 5752 5750 5746 5743 5740 5737 5732 5728 5723 5718 5715 5710 5707 5703 5698 5695 5691 5687 5685 5684 5683 5680 5678 5677 5676 5675 5676 5678 5681 5684 5686 5688 5692
5768 5769 5769 5768 5766 5764 5764 5763 5760 5757 5753 5751 5747 5745 5741 5739 5736 5731 5726 5725 5720 5716 5713 5709 5706 5701 5698 5695 5692 5687 5684 5683 5681 5679 5678 5676 5674 5673 5673 5674 5674 5676 5678 5681 5684
5759 5759 5760 5760 5759 5759 5758 5756 5754 5752 5749 5746 5743 5739 5736 5733 5732 5729 5726 5721 5717 5713 5710 5706 5705 5703 5695 5691 5688 5687 5680 5677 5679 5678 5676 5675 5673 5671 5670 5670 5670 5670 5671 5672 5675
5752 5751 5750 5751 5752 5751 5750 5749 5748 5745 5742 5739 5737 5734 5730 5726 5725 5721 5721 5715 5713 5708 5704 5702 5698 5696 5695 5691 5686 5685 5681 5677 5674 5676 5674 5672 5673 5669 5667 5666 5666 5665 5665 5664 5667
5745 5745 5743 5743 5742 5743 5742 5741 5739 5737 5735 5732 5730 5728 5723 5722 5716 5714 5712 5712 5708 5704 5698 5696 5693 5688 5686 5687 5684 5681 5678 5675 5674 5672 5672 5669 5670 5665 5665 5664 5664 5662 5661 5659 5657
5739 5738 5738 5735 5734 5733 5732 5733 5730 5728 5726 5723 5722 5720 5715 5715 5711 5709 5704 5702 5702 5699 5695 5689 5690 5688 5685 5681 5678 5677 5677 5671 5667 5667 5665 5665 5665 5661 5657 5658 5657 5655 5654 5655 5652
5732 5731 5729 5727 5727 5724 5723 5722 5721 5717 5717 5715 5714 5711 5707 5706 5702 5698 5697 5698 5694 5693 5690 5685 5682 5678 5682 5675 5674 5675 5671 5669 5664 5663 5658 5662 5659 5653 5652 5648 5648 5647 5646 5646 5647
5726 5723 5722 5720 5718 5716 5714 5715 5713 5710 5707 5705 5704 5701 5699 5697 5694 5689 5688 5688 5686 5680 5680 5679 5677 5671 5674 5672 5667 5671 5668 5664 5661 5658 5654 5651 5654 5648 5647 5645 5641 5639 5638 5636 5636
5717 5717 5715 5713 5710 5706 5705 5704 5702 5700 5699 5696 5692 5690 5690 5688 5685 5683 5681 5680 5677 5675 5673 5670 5667 5665 5665 5664 5660 5665 5664 5660 5657 5654 5650 5646 5645 5639 5638 5637 5635 5632 5629 5627 5625
Wind_Speed
15 17 17 19 21 22 22 23 24 25 25 27 29 31 35 37 39 43 43 36 33 33 30 26 23 19 19 20 28 30 38 50 61 64 63 60 61 54 50 50 52 49 45 37 37
17 18 20 21 22 23 23 23 23 24 26 27 30 32 35 37 39 42 44 33 32 32 31 27 23 19 17 17 20 29 34 37 49 57 60 56 62 63 55 52 54 49 45 37 40
16 18 20 23 24 26 27 27 26 26 26 27 29 32 34 37 39 43 47 36 31 32 32 27 22 17 15 13 17 21 29 39 42 50 59 59 65 63 54 59 58 54 49 43 43
16 17 20 23 26 29 30 31 30 29 29 29 29 31 33 37 40 42 45 42 31 32 32 28 20 16 12 11 13 18 25 32 42 49 53 68 69 62 37 57 59 58 53 48 47
16 19 20 22 25 28 32 34 33 34 33 32 31 32 34 36 39 42 43 45 34 33 34 25 19 16 13 10 13 16 22 25 33 43 49 61 69 68 56 53 63 57 58 53 50
16 18 19 20 23 26 30 33 35 37 37 36 34 35 36 34 37 40 42 44 38 34 34 29 19 16 13 12 12 13 18 24 30 40 49 57 69 62 70 29 67 61 60 56 52
16 18 20 20 21 23 26 31 35 37 37 37 37 38 36 36 37 39 40 43 43 34 35 32 20 18 14 12 10 11 15 20 26 37 44 54 65 66 52 50 49 55 68 60 54
17 20 21 21 21 23 24 27 31 35 36 37 38 37 37 41 39 39 41 41 42 38 34 34 26 20 15 13 15 4 6 13 22 31 39 35 56 64 58 55 30 73 60 62 57
16 19 22 23 21 21 23 25 27 31 34 35 37 37 41 43 44 41 40 39 40 40 34 34 30 21 16 15 6 5 10 5 14 25 35 36 36 59 67 42 27 66 53 61 53
18 20 22 23 23 21 22 24 27 30 33 34 37 39 43 41 42 44 40 41 38 37 40 31 31 28 22 15 11 9 7 2 10 20 23 33 33 46 48 22 64 44 33 43 56
21 20 23 23 24 23 23 24 25 29 32 33 37 37 40 41 40 39 43 42 40 39 36 37 31 28 26 19 13 6 2 2 8 12 17 23 30 40 43 35 37 59 51 39 45
22 23 23 23 24 24 24 25 26 29 31 30 33 34 36 38 39 42 41 42 42 39 36 35 34 29 26 23 17 12 8 4 4 11 15 20 26 31 39 47 39 32 59 54 44
24 24 24 24 24 25 25 26 26 29 31 30 32 34 35 37 38 40 40 39 40 41 40 36 32 31 26 24 22 16 12 7 1 8 12 12 20 27 33 39 43 35 43 47 50
25 25 25 25 25 25 26 26 28 29 31 31 32 33 34 35 36 39 41 41 40 41 40 39 34 29 29 27 22 20 16 11 6 2 8 12 17 24 25 31 34 47 49 52 57
26 26 27 26 28 25 26 27 28 30 32 32 33 35 35 36 37 35 38 37 38 38 39 34 33 31 25 25 25 20 16 12 10 4 4 8 13 25 25 25 37 39 42 43 46
30 26 28 28 29 28 26 28 29 29 30 30 32 33 35 35 35 35 36 34 35 35 37 37 32 32 30 28 22 20 18 14 11 8 4 7 9 17 24 22 26 33 38 38 42
30 31 29 30 29 30 29 29 31 30 32 33 31 33 35 34 35 35 38 36 36 33 33 34 34 33 32 29 27 23 17 17 16 12 9 6 11 16 20 25 27 29 33 30 35
37 31 32 32 29 33 31 30 31 32 32 35 34 31 32 35 33 33 34 39 36 36 35 37 37 35 34 33 28 25 24 20 17 16 13 10 8 16 21 23 27 30 33 33 31
37 34 29 32 38 30 33 32 33 34 35 37 39 35 36 35 35 33 35 36 35 36 37 36 31 28 29 31 30 26 25 21 15 14 10 12 10 10 16 24 28 30 33 35 33
38 39 33 32 42 31 34 33 36 38 36 38 42 39 37 34 34 36 38 36 37 35 39 37 29 29 27 27 26 28 27 22 20 17 13 11 11 13 12 15 25 31 33 35 36
43 39 37 31 38 35 36 35 37 40 37 39 41 43 42 39 36 34 35 35 37 38 38 36 30 27 30 27 27 27 29 29 21 19 18 11 10 13 14 15 15 23 34 37 37
47 44 45 35 35 37 39 38 38 40 42 42 43 44 44 41 39 37 36 38 36 40 40 39 35 30 26 24 27 26 24 25 28 22 21 19 13 13 18 19 16 15 19 28 35
37 39 41 35 37 37 37 38 38 41 43 46 42 42 43 38 38 37 36 33 35 36 40 35 34 33 31 29 27 27 27 24 22 23 19 22 15 17 19 19 17 15 13 14 19
36 34 36 34 37 43 43 37 44 42 44 43 41 43 45 39 37 37 41 38 34 35 35 35 28 30 27 27 29 26 22 26 31 29 28 21 18 22 24 23 26 26 22 20 23
33 35 35 34 38 42 46 45 42 43 45 42 42 44 44 39 38 40 40 34 37 30 30 32 25 29 15 26 25 22 22 22 31 30 33 27 29 27 25 29 26 27 30 26 23
39 35 33 32 34 39 43 44 41 40 43 43 43 46 41 39 39 40 37 34 34 38 32 25 24 28 21 23 26 15 19 26 30 31 33 34 26 29 28 28 31 29 28 30 28
46 45 42 40 38 40 40 38 39 41 39 39 40 41 36 37 37 33 33 34 37 35 32 31 32 32 32 32 38 24 22 24 26 28 32 34 30 35 33 32 34 33 31 31 32
Wind_Direction
9 3 2 1 357 354 354 352 350 348 349 352 353 356 358 355 355 357 352 352 346 337 332 324 313 298 280 262 246 236 230 225 219 220 216 216 217 215 222 225 222 218 223 222 224
6 6 6 6 360 358 359 358 354 349 350 351 353 357 359 359 359 359 2 350 346 345 337 332 322 307 287 272 251 239 228 227 224 220 217 211 214 215 218 220 224 223 224 216 222
16 18 19 16 12 10 7 4 1 355 353 352 353 357 359 0 1 4 7 356 345 347 345 340 331 319 299 287 255 241 228 222 217 217 217 209 212 212 224 215 220 219 221 216 219
16 17 15 14 11 14 11 8 8 6 360 354 355 357 358 5 6 8 10 6 353 352 347 345 340 331 310 289 266 255 242 228 218 218 214 210 209 211 193 211 214 214 221 218 218
5 5 7 9 12 11 10 11 8 9 9 3 359 360 1 358 8 10 12 11 3 359 358 354 347 340 329 313 287 265 244 233 220 217 211 212 208 211 219 213 215 213 219 219 217
359 358 356 2 4 8 8 8 10 11 13 10 9 8 7 1 9 11 13 14 11 8 8 4 357 349 338 325 310 293 250 235 225 209 210 211 211 206 211 234 216 209 217 219 219
348 352 353 351 354 359 5 6 9 8 9 12 12 11 9 8 11 13 13 15 17 13 12 13 8 3 359 348 340 306 241 235 223 211 205 212 209 208 213 211 212 216 210 216 217
338 341 348 350 347 350 359 2 4 6 7 12 10 12 11 14 14 12 14 15 18 18 16 20 16 13 14 15 15 7 257 235 222 213 213 220 210 214 204 215 199 214 210 208 214
333 337 341 348 346 345 349 355 359 3 3 8 7 9 13 14 13 15 15 15 20 20 18 25 24 19 14 11 356 40 30 221 219 217 216 224 209 214 208 200 204 209 228 210 207
327 332 336 341 345 345 346 349 354 358 360 3 4 6 13 15 14 15 15 17 17 17 24 24 28 26 21 14 13 34 331 182 229 210 214 227 218 211 210 219 225 199 217 225 210
318 324 328 334 340 344 347 348 352 353 356 360 4 6 8 10 15 12 17 19 15 18 24 24 29 27 25 20 21 45 48 256 227 198 202 206 221 210 219 230 226 226 226 221 222
309 314 323 327 333 339 343 345 348 355 354 356 359 3 3 5 10 14 14 18 18 19 22 21 25 25 26 25 20 22 14 0 222 192 187 195 218 228 234 209 203 224 227 233 223
301 308 314 320 326 332 337 340 345 348 351 353 355 358 2 2 4 8 13 14 16 18 19 22 23 23 21 27 27 23 23 29 52 200 194 186 219 230 241 243 252 232 215 224 221
294 300 307 315 320 325 327 333 336 340 343 347 352 354 358 359 360 3 4 10 9 14 14 21 23 22 20 25 24 24 24 24 34 274 197 182 212 233 243 248 246 243 241 229 229
290 294 301 306 310 315 319 325 327 330 338 340 345 348 350 354 355 357 359 2 4 10 12 14 20 25 25 22 20 21 17 16 22 11 291 205 201 231 241 246 247 252 250 252 257
288 287 296 298 303 305 313 318 318 322 327 333 336 341 342 346 349 350 355 354 0 2 8 11 12 16 21 21 17 18 21 10 6 355 324 278 230 227 238 244 251 254 255 255 261
282 285 288 293 294 300 304 310 313 314 318 321 326 331 336 340 343 342 344 351 351 356 360 2 5 9 12 14 17 18 14 17 21 8 1 306 261 252 238 238 241 248 252 247 252
274 276 287 283 285 295 297 302 307 308 310 312 316 320 326 331 333 339 338 342 347 349 350 354 355 356 359 4 8 8 15 19 9 12 2 346 307 260 255 245 241 246 251 253 246
275 276 280 282 290 289 293 294 300 303 305 307 312 314 318 325 327 332 334 336 339 342 343 344 351 349 346 355 357 1 5 8 13 6 6 355 328 292 258 253 252 248 248 253 254
270 275 269 278 287 287 289 291 295 303 300 302 306 312 313 317 323 327 329 331 336 334 340 338 348 346 343 342 347 349 350 351 0 7 0 349 329 313 297 270 257 252 253 253 255
284 272 268 270 278 287 288 287 290 301 302 299 303 308 309 310 313 317 321 323 326 331 334 333 339 344 341 338 335 344 338 344 350 349 347 2 318 327 319 317 281 264 261 256 256
295 282 274 267 270 278 282 284 289 294 297 298 301 306 306 305 309 311 315 316 321 326 327 329 330 336 338 335 327 335 336 329 330 335 339 330 329 303 301 312 313 299 278 270 266
293 290 279 275 272 274 280 282 284 288 291 299 299 302 303 305 306 311 310 309 313 318 321 323 328 331 337 334 330 337 336 324 318 325 329 322 317 318 298 299 303 307 297 285 274
293 293 281 279 279 280 280 277 282 287 290 298 299 301 301 301 299 303 306 307 309 314 318 317 322 320 323 320 322 332 333 317 316 326 321 331 320 304 301 299 296 297 295 274 275
297 297 287 282 279 284 289 284 282 288 291 293 295 299 299 300 296 299 301 300 304 307 311 307 314 307 320 309 312 329 323 312 315 315 316 319 326 299 301 298 293 289 292 292 272
307 298 292 289 288 291 290 285 292 287 293 291 291 294 295 295 295 299 299 302 307 308 310 303 307 303 316 304 301 308 299 311 309 314 316 314 315 304 308 300 296 293 290 289 289
297 297 288 290 289 289 294 291 292 288 284 288 291 291 292 294 294 298 295 299 301 302 303 309 309 308 313 313 311 307 294 296 295 300 301 300 307 303 300 300 301 298 290 289 286